Pittsburg, KS

9:44 AM CDT on March 26, 2017 (GMT -0500)
Atkinson Municipal

Weather History for KPTS - December, 2012

Change the Weather History Date:

Saturday, December 8, 2012

  Actual Average (KJLN) Record (KJLN)
Temperature  
Mean Temperature 46 °F -  
Max Temperature 50 °F 48 °F 73 °F (1991)
Min Temperature 43 °F 28 °F 7 °F (1995)
Degree Days  
Heating Degree Days 18    
Moisture  
Dew Point 45 °F    
Average Humidity 91    
Maximum Humidity 100    
Minimum Humidity 71    
Precipitation  
Precipitation 0.00 in - - ()
Sea Level Pressure  
Sea Level Pressure 29.90 in    
Wind  
Wind Speed 6 mph (ENE)    
Max Wind Speed 10 mph    
Max Gust Speed -    
Visibility 5 miles    
Events      
Averages and records for this station are not official NWS values.
T = Trace of Precipitation, MM = Missing Value Source: NWS Daily Summary

Daily Weather History Graph

Daily Weather History Graph

Search for Another Location

Airport or City:

Trip Planner

Search our weather history database for the weather conditions in past years. The results will help you decide how hot, cold, wet, or windy it might be!

Date:

Astronomy

Dec. 08, 2012 Rise Set
Actual Time 7:21 AM CST 5:00 PM CST
Civil Twilight 6:52 AM CST 5:29 PM CST
Nautical Twilight 6:19 AM CST 6:02 PM CST
Astronomical Twilight 5:47 AM CST 6:34 PM CST
Moon 1:52 AM CST (12/8) 1:26 PM CST (12/8)
Length of Visible Light 10h 37m
Length of Day
9h 39m
Waning Crescent, 28% of the Moon is Illuminated
Dec 8
Waning Crescent
Dec 13
New
Dec 19
First Quarter
Dec 28
Full
Jan 4
Last Quarter

Hourly Weather History & Observations

Time (CST) Temp. Windchill Dew Point Humidity Pressure Visibility Wind Dir Wind Speed Gust Speed Precip Events Conditions
12:15 AM 50.9 °F - - N/A% 29.90 in 3.0 mi NNE 4.6 mph - N/A   Overcast
12:35 AM 50.9 °F - - N/A% 29.89 in 3.0 mi NE 3.5 mph - N/A   Overcast
12:55 AM 50.9 °F - - N/A% 29.89 in 3.0 mi Calm Calm - N/A   Overcast
1:15 AM 50.9 °F - - N/A% 29.90 in 2.5 mi North 4.6 mph - N/A   Overcast
1:35 AM 50.2 °F - - N/A% 29.90 in 2.5 mi North 3.5 mph - N/A   Overcast
1:55 AM 49.8 °F - - N/A% 29.91 in 2.5 mi North 3.5 mph - N/A   Overcast
2:15 AM 48.4 °F - - N/A% 29.92 in 2.0 mi North 6.9 mph - N/A   Overcast
2:35 AM 48.2 °F - - N/A% 29.92 in 3.0 mi NNE 8.1 mph - N/A   Overcast
2:55 AM 48.2 °F - - N/A% 29.92 in 3.0 mi North 5.8 mph - N/A   Overcast
3:15 AM 48.2 °F - - N/A% 29.92 in 3.0 mi NNE 5.8 mph - N/A   Overcast
3:35 AM 48.2 °F - 48.4 °F 100% 29.92 in 3.0 mi NNE 8.1 mph - N/A   Overcast
3:55 AM 48.2 °F - 48.4 °F 100% 29.92 in 3.0 mi NNE 6.9 mph - N/A   Overcast
4:15 AM 48.2 °F - 48.4 °F 100% 29.92 in 4.0 mi NE 8.1 mph - N/A   Overcast
4:35 AM 48.2 °F - 48.4 °F 100% 29.92 in 4.0 mi NNE 6.9 mph - N/A   Overcast
5:15 AM 48.2 °F - 48.4 °F 100% 29.93 in 4.0 mi NNE 5.8 mph - N/A   Overcast
5:35 AM 48.2 °F - 48.4 °F 100% 29.93 in 4.0 mi NE 5.8 mph - N/A   Overcast
5:55 AM 48.2 °F - 48.4 °F 100% 29.94 in 4.0 mi NNE 8.1 mph - N/A   Overcast
6:15 AM - - - N/A% 29.94 in 4.0 mi NNE 6.9 mph - N/A   Overcast
6:35 AM 46.0 °F 41.9 °F 46.2 °F 100% 29.94 in 4.0 mi NNE 8.1 mph - N/A   Overcast
6:55 AM 45.5 °F 41.3 °F 45.7 °F 100% 29.94 in 4.0 mi NE 8.1 mph - N/A   Overcast
7:15 AM 45.5 °F 41.3 °F 45.7 °F 100% 29.95 in 4.0 mi NE 8.1 mph - N/A   Overcast
7:35 AM 44.8 °F 39.9 °F 45.0 °F 100% 29.95 in 2.5 mi NE 9.2 mph - N/A   Overcast
7:55 AM 44.2 °F 39.2 °F 44.4 °F 100% 29.96 in 2.5 mi ENE 9.2 mph - N/A   Overcast
8:15 AM 43.7 °F 38.1 °F 43.9 °F 100% 29.95 in 3.0 mi NE 10.4 mph - N/A   Overcast
8:35 AM 43.7 °F 38.6 °F 43.9 °F 100% 29.96 in 3.0 mi East 9.2 mph - N/A   Overcast
8:55 AM 43.7 °F 38.6 °F 43.9 °F 100% 29.96 in 3.0 mi East 9.2 mph - N/A   Overcast
9:15 AM 43.7 °F 38.6 °F 43.9 °F 100% 29.96 in 3.0 mi ENE 9.2 mph - N/A   Overcast
9:35 AM 44.1 °F 39.0 °F 44.2 °F 100% 29.96 in 4.0 mi East 9.2 mph - N/A   Mostly Cloudy
9:55 AM 45.7 °F 40.6 °F 45.3 °F 99% 29.94 in 5.0 mi ENE 10.4 mph - N/A   Mostly Cloudy
10:15 AM 45.0 °F 40.6 °F 43.9 °F 96% 29.96 in 7.0 mi ENE 8.1 mph - N/A   Mostly Cloudy
10:35 AM 45.7 °F 40.6 °F 43.5 °F 92% 29.96 in 7.0 mi ENE 10.4 mph - N/A   Scattered Clouds
10:55 AM 47.8 °F - 43.3 °F 84% 29.95 in 7.0 mi East 9.2 mph - N/A   Scattered Clouds
11:15 AM 49.6 °F - 43.5 °F 79% 29.95 in 10.0 mi ENE 10.4 mph - N/A   Mostly Cloudy
11:35 AM 50.9 °F - 43.2 °F 75% 29.94 in 10.0 mi ESE 8.1 mph - N/A   Mostly Cloudy
11:55 AM 50.9 °F - 41.9 °F 71% 29.92 in 10.0 mi East 6.9 mph - N/A   Scattered Clouds
12:15 PM 50.9 °F - 41.9 °F 71% 29.91 in 10.0 mi East 9.2 mph - N/A   Mostly Cloudy
12:35 PM 50.9 °F - 41.9 °F 71% 29.91 in 10.0 mi East 5.8 mph - N/A   Mostly Cloudy
12:55 PM 50.9 °F - 42.4 °F 73% 29.90 in 10.0 mi East 8.1 mph - N/A   Mostly Cloudy
1:15 PM 50.9 °F - 43.5 °F 76% 29.90 in 7.0 mi ESE 5.8 mph - N/A   Mostly Cloudy
1:35 PM 50.9 °F - 43.5 °F 76% 29.89 in 7.0 mi ESE 6.9 mph - N/A   Mostly Cloudy
1:55 PM 50.9 °F - 43.7 °F 76% 29.87 in 10.0 mi East 8.1 mph - N/A   Mostly Cloudy
2:15 PM 50.9 °F - 44.1 °F 77% 29.87 in 10.0 mi East 8.1 mph - N/A   Scattered Clouds
2:35 PM 50.9 °F - 43.9 °F 77% 29.87 in 10.0 mi East 9.2 mph - N/A   Mostly Cloudy
2:55 PM 50.0 °F - 43.5 °F 78% 29.87 in 10.0 mi East 8.1 mph - N/A   Mostly Cloudy
3:15 PM 48.2 °F - 42.8 °F 82% 29.86 in 10.0 mi East 8.1 mph - N/A   Mostly Cloudy
3:35 PM 48.2 °F - 43.5 °F 84% 29.86 in 7.0 mi ENE 8.1 mph - N/A   Overcast
3:55 PM 48.2 °F - 43.9 °F 85% 29.86 in 7.0 mi East 9.2 mph - N/A   Overcast
4:15 PM 48.2 °F - 45.3 °F 90% 29.86 in 7.0 mi East 9.2 mph - N/A   Overcast
4:35 PM 48.2 °F - 47.7 °F 98% 29.85 in 5.0 mi East 8.1 mph - N/A   Overcast
4:55 PM 48.2 °F - 48.4 °F 100% 29.85 in 5.0 mi East 8.1 mph - N/A   Overcast
5:15 PM 48.2 °F - 48.4 °F 100% 29.85 in 4.0 mi East 10.4 mph - N/A   Overcast
5:35 PM 48.2 °F - 48.4 °F 100% 29.85 in 5.0 mi East 9.2 mph - N/A   Overcast
5:55 PM 47.3 °F - 47.5 °F 100% 29.85 in 5.0 mi East 9.2 mph - N/A   Overcast
6:15 PM 46.2 °F 42.7 °F 46.4 °F 100% 29.85 in 4.0 mi East 6.9 mph - N/A   Overcast
6:35 PM 45.5 °F 41.3 °F - N/A% 29.84 in 3.0 mi East 8.1 mph - N/A   Overcast
6:55 PM 45.5 °F 42.5 °F - N/A% 29.84 in 3.0 mi East 5.8 mph - N/A   Overcast
7:15 PM 45.5 °F 40.8 °F - N/A% 29.84 in 3.0 mi East 9.2 mph - N/A   Overcast
7:55 PM 45.5 °F 42.5 °F - N/A% 29.84 in 2.5 mi ESE 5.8 mph - N/A   Overcast
8:15 PM 45.9 °F 44.6 °F - N/A% 29.84 in 2.5 mi East 3.5 mph - N/A   Overcast
8:35 PM 46.6 °F - - N/A% 29.84 in 2.5 mi ENE 4.6 mph - N/A   Overcast
9:15 PM 48.0 °F - - N/A% 29.84 in 3.0 mi ENE 3.5 mph - N/A   Overcast
9:35 PM 48.0 °F - - N/A% 29.84 in 3.0 mi North 4.6 mph - N/A   Overcast
9:55 PM 46.2 °F 45.0 °F - N/A% 29.84 in 1.8 mi ENE 3.5 mph - N/A   Overcast
10:15 PM 46.0 °F 44.8 °F - N/A% 29.84 in 2.0 mi ENE 3.5 mph - N/A   Overcast
10:35 PM 46.2 °F 45.0 °F - N/A% 29.85 in 2.0 mi North 3.5 mph - N/A   Overcast
10:55 PM 45.7 °F 43.4 °F - N/A% 29.85 in 1.8 mi NNE 4.6 mph - N/A   Overcast
11:15 PM 45.5 °F 43.2 °F - N/A% 29.85 in 1.8 mi NNE 4.6 mph - N/A   Overcast
11:35 PM 45.5 °F 44.2 °F - N/A% 29.84 in 1.8 mi NE 3.5 mph - N/A   Overcast
11:55 PM 45.5 °F 43.2 °F - N/A% 29.84 in 2.0 mi ENE 4.6 mph - N/A   Overcast